Location: Alt?nova Orta
(36.9295°N, 30.7847°E)
Time: 08:40:33
(UTC+00:00)

DELTA 2 R/B (1) - Pass Details

Date: 17 February 2020
Orbit: 791 x 802 km, 39.6° (Epoch: 31 March)

Event Time Altitude Azimuth Distance (km) Brightness Sun altitude
Exits shadow 04:06:03 - 241° (WSW) 3,008 6.1 -8.2°
Reaches altitude 10° 04:07:49 10° 240° (WSW) 2,353 5.6 -7.9°
Maximum altitude 04:13:19 69° 158° (SSE) 845 3.9 -6.8°
Drops below altitude 10° 04:18:50 10° 75° (ENE) 2,353 7.3 -5.7°
Sets 04:21:20 0° 73° (ENE) 3,283 8.0 -5.2°
